Location: Emblem
(62.4273°N, 6.4710°E)
Time: 06:33:44
(UTC+01:00)

N. Korean satellite - Visible Passes

Search period start: 07 December 2022 00:00
Search period end: 17 December 2022 00:00
Orbit: 421 x 452 km, 97.3° (Epoch: 06 December)

Date Brightness Start Highest point End Pass type
(mag) Time Alt. Az. Time Alt. Az. Time Alt. Az.
07 Dec 8.3 05:34:02 10° NNE 05:37:08 31° E 05:40:12 10° SSE visible
07 Dec 6.8 07:06:30 10° N 07:09:44 40° WNW 07:12:57 10° SW visible
07 Dec 6.5 16:13:20 10° SSE 16:16:42 60° ENE 16:20:07 10° NNW visible
07 Dec 9.2 17:46:48 10° SW 17:49:31 22° W 17:52:16 10° NW visible
08 Dec 9.5 04:55:40 10° NE 04:57:46 15° E 04:59:52 10° SE visible
08 Dec 6.3 06:27:21 10° NNE 06:30:48 88° WNW 06:34:11 10° SSW visible
08 Dec 7.9 08:00:30 10° N 08:02:52 18° NW 08:05:13 10° W visible
08 Dec 7.7 17:06:56 10° S 17:10:14 45° W 17:13:34 10° NNW visible
09 Dec 7.7 05:48:22 10° NNE 05:51:39 40° E 05:54:51 10° S visible
09 Dec 7.1 07:21:00 10° N 07:24:06 31° WNW 07:27:08 10° SW visible
09 Dec 6.4 16:27:40 10° SSE 16:31:05 80° ENE 16:34:32 10° NNW visible
09 Dec 9.6 18:01:44 10° SW 18:04:03 17° W 18:06:22 10° NW visible
10 Dec 9.1 05:09:42 10° NE 05:12:16 20° E 05:14:48 10° SE visible
10 Dec 6.3 06:41:44 10° NNE 06:45:08 66° WNW 06:48:29 10° SSW visible
10 Dec 8.1 08:15:07 10° NNW 08:17:03 15° NW 08:18:59 10° W visible
10 Dec 8.3 17:21:28 10° SSW 17:24:37 34° W 17:27:48 10° NNW visible
11 Dec 7.1 06:02:37 10° NNE 06:05:58 54° ESE 06:09:17 10° S visible
11 Dec 7.4 07:35:25 10° N 07:38:17 25° WNW 07:41:05 10° WSW visible
11 Dec 6.6 16:41:54 10° SSE 16:45:20 77° WSW 16:48:47 10° NNW visible
11 Dec 9.8 18:16:44 10° WSW 18:18:27 13° W 18:20:09 10° NW visible
12 Dec 8.7 05:23:42 10° NE 05:26:36 25° E 05:29:26 10° SSE visible
12 Dec 6.5 06:55:59 10° N 06:59:18 49° WNW 07:02:34 10° SW visible
12 Dec 8.3 08:29:43 10° NNW 08:31:06 12° NW 08:32:27 10° WNW visible
12 Dec 6.7 16:02:53 10° SE 16:06:12 48° ENE 16:09:31 10° N visible
12 Dec 8.8 17:35:57 10° SSW 17:38:53 26° W 17:41:50 10° NW visible
13 Dec 9.7 04:45:28 10° ENE 04:46:59 12° E 04:48:30 10° ESE visible
13 Dec 6.5 06:16:43 10° NNE 06:20:08 74° ESE 06:23:29 10° SSW visible
13 Dec 7.7 07:49:42 10° N 07:52:17 20° NW 07:54:50 10° WSW visible
13 Dec 7.2 16:56:06 10° S 16:59:28 57° WSW 17:02:51 10° NNW visible
13 Dec 10.1 18:32:23 10° W 18:32:43 10° W 18:33:04 10° WNW visible
14 Dec 8.2 05:37:38 10° NNE 05:40:45 32° E 05:42:01 24° SE visible
14 Dec 6.8 07:10:07 10° N 07:13:18 38° WNW 07:15:20 18° WSW visible
14 Dec 6.4 16:16:48 10° SSE 16:20:11 64° ENE 16:23:36 10° NNW visible
14 Dec 9.3 17:50:23 10° SW 17:53:01 20° W 17:55:39 10° NW visible
15 Dec 9.4 04:58:58 10° NE 05:01:08 16° E 05:01:42 15° E visible
15 Dec 6.2 06:30:42 10° NNE 06:34:07 83° WNW 06:35:01 46° SSW visible
15 Dec 8.0 08:03:54 10° N 08:06:08 17° NW 08:08:21 10° W visible
15 Dec 7.8 17:10:11 10° S 17:13:27 42° W 17:16:45 10° NNW visible
16 Dec 7.6 05:51:28 10° NNE 05:54:43 42° E 05:54:52 42° ESE visible
16 Dec 7.2 07:24:08 10° N 07:27:07 30° WNW 07:28:12 24° W visible
16 Dec 6.4 16:30:38 10° SSE 16:34:03 84° ENE 16:37:29 10° NNW visible
16 Dec 9.6 18:04:49 10° SW 18:07:01 16° W 18:09:13 10° NW visible
